Theta_e
309 310 309 310 310 310 311 312 313 314 315 315 315 316 317 318 318 318 318 318 318 318 319 319 315 315 315 314 314 318 311 293 296 295 295 300 315 319 319 320 319 318 315 299 298 296 291 292 293 293 291 291 289 289 289 290 290 290 285 280 277 280 280 284 283 284 286 285 286 287 288 288 287 291 291 294 292 292 292 292 295 296 298 299 301 302 304 324
310 309 309 310 310 311 312 312 313 314 315 315 315 316 317 318 318 318 318 319 319 319 319 320 318 314 317 315 317 317 306 295 294 294 294 308 318 319 319 320 319 316 309 298 295 293 291 290 291 290 288 287 290 287 290 287 289 285 279 280 278 280 283 287 287 285 285 284 286 287 287 287 287 288 290 289 289 290 291 292 294 295 297 299 300 301 303 319
309 309 309 309 310 311 312 313 314 315 315 315 315 316 317 317 317 317 318 319 319 319 319 319 319 314 314 314 318 316 300 294 294 291 295 313 317 319 319 320 319 315 299 296 295 293 292 292 290 289 287 286 289 285 289 288 287 283 281 278 280 284 284 284 286 286 287 287 286 286 286 285 288 288 292 288 287 288 289 290 291 292 293 295 297 300 306 311
309 309 309 309 310 311 312 313 314 315 315 315 315 315 316 317 317 317 318 318 319 320 319 318 318 315 311 316 315 298 293 289 288 291 297 313 317 318 318 319 318 309 301 298 296 295 294 291 289 289 286 287 286 287 287 288 284 284 283 279 282 284 283 286 286 286 286 287 285 285 285 285 288 288 288 289 288 289 290 292 291 290 292 294 296 300 307 307
309 309 309 310 311 312 312 314 314 315 315 315 315 314 316 316 316 317 318 318 319 320 319 318 316 314 312 309 310 296 290 283 285 294 300 313 316 317 317 317 317 304 300 298 297 298 295 292 287 288 287 283 286 282 285 287 285 282 282 284 284 284 283 286 286 286 284 285 285 283 285 286 288 287 289 290 287 287 290 293 294 293 294 293 295 303 304 306
309 309 309 310 310 311 313 314 315 315 315 315 314 314 315 316 316 317 317 318 318 319 319 318 315 313 314 310 297 295 290 276 289 294 310 313 315 315 315 315 314 304 302 300 296 295 295 293 290 285 283 284 284 284 286 285 286 281 282 283 285 286 284 286 286 285 283 283 283 283 285 286 285 286 289 290 289 291 295 295 294 294 295 298 302 302 302 303
309 309 309 309 310 311 313 314 314 315 315 315 314 314 315 316 316 316 317 318 318 318 320 319 314 312 309 309 294 295 290 287 290 297 309 312 313 311 313 309 309 301 301 298 296 294 292 292 291 284 281 283 284 284 285 285 288 286 282 284 286 285 285 285 285 284 282 283 285 284 288 288 286 285 289 289 291 293 295 296 294 297 300 299 299 300 300 300
309 309 310 310 310 311 313 314 314 314 315 315 314 314 315 315 316 316 317 318 318 319 319 319 314 311 314 292 290 289 288 286 294 297 308 309 303 301 305 300 300 300 298 296 295 294 291 290 288 287 286 284 285 285 286 283 287 284 283 285 285 285 285 287 285 286 284 284 285 289 288 287 288 286 289 288 290 293 294 298 298 298 297 297 297 297 297 297
309 310 310 311 312 312 313 314 314 314 314 314 314 314 314 315 315 316 317 318 318 318 319 318 316 310 309 291 286 288 285 292 295 296 298 296 296 296 298 298 299 298 295 297 296 296 292 289 290 288 284 284 287 285 286 281 280 285 285 285 284 284 285 287 287 287 285 285 288 288 287 288 289 288 287 288 290 292 294 296 296 296 294 294 295 295 295 295
309 310 310 311 312 313 314 314 314 315 315 314 314 314 314 315 315 316 317 318 318 318 318 316 316 311 298 289 287 284 289 295 297 298 296 296 295 297 298 296 297 297 296 295 297 296 294 291 291 292 289 287 287 285 284 286 283 286 285 284 282 283 286 288 285 287 286 284 287 286 286 287 290 287 282 289 290 291 292 292 294 294 293 293 293 294 294 294
310 310 311 311 312 313 314 314 315 315 315 315 314 314 314 315 316 316 317 318 317 318 317 314 315 302 294 291 287 283 294 295 296 297 296 295 295 295 294 295 297 297 297 296 295 294 294 294 292 291 288 286 287 285 285 285 287 285 285 283 283 283 288 288 287 288 287 285 286 284 286 288 289 287 284 287 289 290 288 289 291 292 292 292 292 292 293 293
310 310 311 311 312 313 314 314 314 315 315 315 315 314 315 316 316 317 317 318 316 317 317 312 311 295 292 291 287 287 294 296 296 296 296 296 295 293 294 295 296 296 296 295 296 295 295 294 292 289 283 290 283 284 284 288 286 284 282 281 281 283 286 287 285 287 286 285 288 283 287 285 286 283 288 288 289 288 287 287 288 290 291 291 291 291 291 292
310 310 311 311 312 313 314 314 314 315 315 316 316 315 315 315 316 316 318 315 314 315 315 309 302 294 290 286 287 294 294 294 296 295 296 296 295 295 294 295 297 296 297 296 295 297 295 294 293 290 289 285 285 281 286 286 285 284 284 280 281 279 281 286 287 288 286 287 288 286 278 282 284 287 288 289 287 286 285 285 286 288 289 290 290 290 290 290
310 310 311 311 312 313 313 313 314 314 315 316 316 316 315 314 315 317 318 316 314 314 311 308 295 290 290 282 291 294 294 296 294 296 294 296 296 294 294 296 296 296 296 297 296 296 297 293 292 290 290 287 285 289 284 282 284 279 280 281 276 277 277 284 285 286 284 287 288 288 279 281 285 286 289 289 288 285 284 284 285 286 287 288 289 289 289 289
310 310 311 311 312 312 312 313 313 314 314 314 314 315 317 314 313 315 315 314 314 313 313 308 293 289 284 285 292 296 309 294 294 293 294 293 293 292 294 294 294 294 294 295 297 297 295 294 291 287 285 289 286 283 279 278 280 280 275 276 276 277 278 282 287 286 281 285 288 285 278 281 284 286 289 290 288 285 283 284 284 284 285 287 288 288 288 288
310 310 311 311 311 312 312 312 312 312 313 313 313 315 315 316 311 312 311 311 312 310 294 292 291 288 285 282 290 303 291 291 291 294 293 294 292 290 293 292 292 293 293 293 294 293 292 293 287 285 286 287 283 277 279 278 278 279 278 276 276 277 278 278 285 286 286 283 287 284 279 282 283 287 288 289 288 286 284 284 284 284 284 286 286 287 287 287
310 310 310 311 311 311 311 311 311 311 312 312 313 313 315 316 311 311 310 305 298 298 296 292 288 289 283 288 293 289 287 290 291 292 293 293 292 292 292 291 289 289 290 290 292 291 289 287 285 284 284 282 281 278 276 276 275 277 278 276 277 277 277 277 282 285 286 284 281 284 282 282 285 287 287 288 288 285 284 285 285 285 285 286 286 286 286 286
309 310 310 311 311 311 311 310 311 311 311 311 310 310 307 315 310 305 301 299 292 291 290 291 287 284 280 290 284 287 289 288 292 291 291 292 292 293 291 288 288 286 286 286 287 286 286 283 283 279 279 280 280 279 276 272 276 277 277 278 278 278 277 278 278 282 284 284 281 282 282 283 285 287 286 287 288 287 285 285 286 285 286 286 286 285 285 285
309 310 311 311 311 311 310 309 310 310 309 310 308 312 311 310 292 292 294 293 289 285 282 285 285 277 272 284 286 287 289 291 290 289 289 291 292 291 290 289 287 285 281 281 282 283 281 281 279 277 276 276 277 277 277 278 278 277 278 278 279 278 279 278 282 285 284 281 280 281 280 282 284 285 286 287 287 286 286 286 285 285 286 286 285 285 285 285
309 310 310 311 311 311 309 309 309 308 306 298 289 290 289 286 286 285 290 291 285 285 285 286 284 284 285 285 287 291 293 291 286 288 290 292 292 289 288 286 285 284 279 278 279 281 281 277 274 271 274 277 277 278 278 278 279 279 278 277 278 278 281 283 282 285 287 282 282 282 282 281 283 284 286 286 287 286 286 285 284 284 285 285 285 285 285 285
309 309 310 310 311 311 309 307 308 306 304 290 293 291 283 282 279 280 283 285 283 283 285 285 286 285 286 287 287 288 285 287 285 287 289 294 289 287 284 284 282 280 279 278 279 281 280 277 275 276 277 277 277 277 278 278 278 278 277 276 279 282 280 282 281 284 284 281 280 282 281 281 283 285 286 287 286 284 284 285 285 284 284 284 285 284 284 285
308 309 309 309 310 311 308 306 307 306 304 297 294 290 290 289 290 287 282 281 287 287 286 285 284 285 287 286 288 288 286 283 285 287 290 292 288 284 282 282 279 278 280 278 275 276 277 275 277 279 279 277 277 277 277 275 275 275 277 277 279 281 284 285 286 286 284 282 278 281 280 281 283 285 286 286 285 286 287 286 285 285 284 284 284 284 284 284
308 308 309 309 309 310 307 305 305 304 293 292 288 287 288 291 291 289 285 283 281 285 285 283 284 282 285 287 288 288 283 281 279 285 287 289 285 284 280 279 278 278 280 279 276 271 274 276 278 278 277 277 276 277 275 273 274 276 276 274 274 280 281 278 283 285 283 280 278 280 279 280 283 285 285 287 287 286 287 287 286 286 285 284 284 284 284 283
307 308 308 308 308 309 306 308 303 296 293 292 291 289 292 291 290 291 281 278 281 282 287 286 284 283 283 285 288 285 281 282 280 282 289 285 282 282 280 279 276 276 277 277 278 276 275 278 279 278 276 276 275 275 276 274 273 274 277 274 275 277 279 281 279 281 284 283 285 284 281 279 281 280 281 284 288 287 287 286 286 286 286 286 286 285 285 283
307 307 308 307 307 309 309 306 293 289 286 286 287 291 291 291 291 289 282 277 276 281 286 284 284 285 287 290 288 286 283 284 283 284 286 285 283 281 280 281 276 274 277 277 276 277 275 278 279 277 276 275 274 274 274 271 271 271 273 275 275 275 276 279 280 279 279 279 282 281 276 273 278 280 279 282 284 284 286 284 284 284 285 285 284 284 284 285
307 307 307 307 307 308 308 291 286 285 287 287 289 293 290 289 289 285 277 266 268 278 283 280 290 284 289 285 286 281 283 280 284 286 290 287 288 284 279 276 279 275 276 277 275 276 276 278 278 274 275 274 274 274 274 272 269 270 275 277 277 276 277 277 279 281 276 272 275 277 273 265 276 277 279 280 280 282 284 284 283 284 284 284 284 284 283 283
307 307 307 306 306 304 288 284 287 288 284 287 289 289 290 291 291 291 284 265 263 277 279 285 285 284 290 284 283 284 275 278 286 284 286 288 283 286 278 276 276 275 274 273 272 274 276 276 277 274 274 273 273 273 275 273 269 272 278 278 278 277 277 277 277 276 274 275 274 273 273 269 272 276 280 281 280 281 281 282 283 283 283 283 284 284 283 283
307 307 306 306 305 301 287 287 286 284 285 289 290 290 289 288 287 285 270 260 264 281 279 280 286 288 287 284 285 281 281 282 278 282 286 285 284 282 278 276 275 276 276 273 267 273 274 276 276 276 273 271 270 273 277 277 274 275 280 282 278 278 278 276 275 274 275 273 270 274 274 270 269 277 282 281 277 278 278 278 280 282 283 283 283 284 284 284
307 307 306 306 306 303 291 288 285 287 290 289 290 289 291 285 284 278 265 263 272 276 289 282 292 285 282 283 280 279 280 281 278 282 285 284 285 282 276 276 277 277 277 276 273 276 275 277 276 278 275 273 274 276 276 277 273 277 280 282 280 279 279 278 275 277 274 266 265 270 271 267 266 274 277 280 278 276 277 279 280 281 282 284 284 284 283 282
306 306 306 305 296 290 288 285 288 290 289 289 287 288 288 285 281 274 268 263 276 271 280 281 282 279 279 278 276 280 279 279 280 281 281 278 282 282 279 280 277 276 277 276 276 276 278 280 281 277 276 278 277 276 276 276 277 279 279 278 277 275 275 274 270 272 267 260 267 272 272 270 263 269 274 275 277 278 278 279 280 282 283 283 283 282 283 282
306 306 305 304 288 288 284 281 286 286 288 288 289 287 286 277 265 257 260 269 277 274 280 278 278 279 276 276 275 278 278 277 279 278 277 279 279 278 279 278 278 274 273 275 273 276 276 277 278 280 282 279 278 276 277 276 277 277 276 275 277 277 270 269 261 261 260 257 267 272 273 273 263 270 275 278 280 282 281 279 279 281 282 282 282 283 282 282
306 306 305 297 294 287 284 284 287 289 289 288 286 279 278 277 272 266 268 278 270 273 271 275 277 276 276 276 275 276 276 277 277 277 275 274 274 275 273 271 270 263 264 268 269 275 275 276 277 277 282 279 277 274 274 276 277 276 273 274 269 263 261 263 258 261 253 259 271 273 274 268 270 273 273 277 279 279 280 280 280 280 281 281 282 282 282 281
306 304 304 298 296 288 290 287 289 289 289 288 282 277 268 262 266 263 265 264 270 274 272 279 277 276 274 273 273 276 276 274 278 278 276 274 275 274 275 274 274 273 266 269 269 270 270 275 276 277 278 279 278 272 272 272 274 274 269 262 263 260 249 252 253 258 259 264 270 273 270 270 273 275 276 277 278 280 279 279 280 280 280 280 280 281 281 280
305 300 290 294 291 292 293 291 288 290 288 286 284 277 272 268 267 279 266 263 270 273 277 275 276 273 270 274 275 275 274 277 274 277 275 271 272 271 274 275 275 272 268 270 270 266 264 267 274 277 274 277 277 276 276 273 273 272 273 269 266 255 261 260 255 262 260 262 267 269 265 260 268 274 277 278 278 278 278 279 279 279 279 279 278 279 278 279
303 291 289 287 290 290 290 287 289 289 282 280 275 270 269 266 264 266 265 262 270 272 275 273 271 272 272 270 273 275 276 273 276 273 274 273 270 269 272 273 275 273 271 268 269 265 270 270 275 277 278 277 276 278 278 274 273 273 274 272 267 265 261 265 259 258 256 261 263 263 265 264 274 277 279 278 278 278 279 279 280 280 280 279 280 280 280 280
298 289 290 286 290 289 287 290 287 285 281 277 269 272 268 265 270 265 271 277 276 273 274 274 271 269 269 269 269 273 277 273 274 269 269 273 274 273 274 274 275 274 272 270 271 264 268 269 275 276 277 277 278 278 277 276 266 270 271 263 270 272 268 256 261 264 266 261 257 258 269 272 274 275 276 278 278 278 278 278 278 279 280 279 279 280 280 280
285 288 287 286 287 286 287 288 289 284 281 275 269 269 266 266 268 272 282 278 279 275 272 270 268 268 265 267 268 272 272 275 272 271 268 273 270 272 273 274 276 275 274 274 272 275 267 270 274 275 277 277 277 278 278 276 277 272 264 272 275 275 271 266 262 252 252 257 260 260 263 266 267 264 274 277 276 278 277 277 278 279 278 279 280 280 281 281
286 286 290 286 288 287 289 287 286 282 278 278 272 281 265 271 277 276 277 278 279 275 271 270 268 272 263 265 270 271 274 273 272 267 267 269 268 277 273 274 275 274 275 275 273 270 274 265 271 274 274 276 278 278 277 279 278 276 274 272 272 260 264 258 259 258 258 255 257 262 265 265 269 270 271 274 276 277 277 277 277 277 278 279 280 280 281 280
281 282 283 286 287 288 288 285 285 280 275 274 265 280 270 269 275 275 275 279 279 277 274 270 269 267 266 266 269 271 273 271 270 268 266 268 268 276 275 274 274 274 275 275 270 274 273 266 270 275 275 276 276 274 268 272 277 273 276 273 270 268 263 260 262 261 258 256 257 260 262 265 270 271 274 276 277 278 278 277 277 278 279 280 280 280 281 280
284 283 279 286 286 288 289 287 281 277 274 274 270 270 269 269 273 276 276 280 278 275 275 273 271 267 268 266 273 273 272 271 272 272 270 271 274 278 276 276 274 275 275 277 274 273 271 270 263 272 272 274 271 273 271 273 270 273 272 269 269 265 268 269 262 263 263 252 254 254 260 263 270 273 275 276 277 279 278 278 279 279 280 280 280 280 280 280
280 279 279 285 287 287 287 283 276 270 269 268 270 268 266 271 276 278 277 276 278 280 277 274 273 270 268 268 269 273 270 272 272 271 271 271 272 271 276 276 275 276 276 274 274 270 264 267 264 269 270 268 271 276 275 274 274 273 272 272 272 268 264 262 262 259 255 261 256 253 264 268 273 276 278 277 278 278 278 279 279 279 280 280 280 280 280 280
282 275 280 285 285 286 282 278 270 266 271 271 273 274 275 282 272 278 276 276 278 277 275 275 275 272 269 269 271 270 270 268 270 270 271 273 274 274 276 273 274 275 274 271 272 275 273 266 267 265 270 273 274 275 276 275 274 271 274 274 274 269 264 258 259 261 260 260 257 254 257 266 274 274 276 277 277 277 277 278 279 279 280 280 280 280 280 280
277 280 284 285 286 285 281 271 274 273 271 274 277 280 278 275 273 277 277 276 275 276 276 274 277 274 272 272 268 267 272 269 271 272 272 272 269 273 275 272 274 275 277 273 275 272 280 263 265 269 270 271 273 273 275 273 274 273 273 273 272 271 270 269 265 264 261 259 260 258 258 267 274 276 275 275 276 276 276 277 278 279 279 279 279 279 279 279
280 279 284 287 286 285 282 279 272 270 269 270 274 276 278 276 276 273 273 274 274 274 277 277 277 277 273 274 271 269 273 268 274 274 272 273 274 274 272 273 272 276 273 274 272 276 267 267 267 261 264 267 265 268 270 269 271 270 272 272 272 271 269 266 265 263 264 261 263 263 261 264 275 276 275 275 275 275 276 276 277 278 279 279 278 278 279 279
281 281 279 283 286 286 278 273 272 271 274 271 270 273 275 277 276 277 277 275 278 274 277 276 277 277 272 268 265 265 263 269 268 273 273 273 274 276 274 272 275 276 278 280 282 277 270 265 265 263 262 263 265 266 268 265 267 271 268 271 272 272 268 268 264 260 261 262 265 259 262 272 274 274 274 274 275 276 276 276 275 277 278 279 278 278 278 278
278 278 277 278 279 279 277 278 275 274 271 269 272 272 273 273 278 275 276 277 278 277 276 278 276 276 274 273 269 263 266 265 269 266 269 269 272 272 273 272 274 276 280 284 281 273 263 265 266 267 267 269 272 273 271 274 270 269 269 269 270 271 272 270 266 260 264 262 264 269 270 274 276 277 277 278 276 276 277 278 278 277 277 277 277 278 278 278
278 275 275 275 276 277 271 275 272 273 273 275 272 272 273 272 274 274 276 272 277 275 274 277 277 276 273 274 268 265 263 265 264 265 268 271 272 273 274 273 274 277 284 281 279 268 262 265 269 268 270 273 273 272 272 273 271 272 271 271 271 271 270 269 266 266 268 264 265 270 272 271 273 276 275 275 276 275 276 276 277 277 278 278 278 278 281 278
280 277 275 275 278 276 273 275 275 273 276 275 274 275 272 273 274 273 276 277 276 274 273 273 276 277 276 275 272 270 264 262 259 266 268 270 270 271 275 276 275 279 282 276 276 272 265 263 266 268 268 271 271 271 272 272 271 271 271 271 270 271 269 268 269 272 269 268 270 271 270 271 275 277 278 278 277 277 278 278 278 278 278 277 277 277 277 277
279 276 277 277 277 273 275 277 278 276 276 275 277 274 271 272 273 274 272 274 272 274 276 271 272 276 277 274 273 271 267 269 270 264 263 266 268 271 270 272 276 275 277 274 271 263 268 264 264 266 268 270 271 271 271 270 269 270 270 270 271 271 270 271 271 272 271 271 273 274 274 274 276 277 279 279 278 277 278 278 277 276 277 278 277 277 277 278
276 278 276 276 275 271 275 276 277 276 273 280 274 274 275 274 273 274 274 274 272 273 274 274 275 274 277 274 274 273 273 275 276 271 271 270 267 270 270 272 272 275 275 271 269 267 271 264 273 265 264 270 269 269 268 268 268 268 271 271 271 271 271 271 271 272 272 271 272 273 272 272 277 279 278 280 279 278 277 277 277 278 277 277 277 277 277 278
279 279 279 280 276 275 277 275 276 274 274 275 274 275 276 274 275 276 275 277 277 274 274 276 275 274 276 275 274 276 278 275 275 277 274 273 273 274 273 271 276 272 272 271 270 267 270 264 262 259 264 264 264 265 267 269 269 268 269 272 273 271 268 270 269 272 271 270 271 270 269 270 275 278 277 278 277 276 276 277 277 277 277 277 276 277 277 278
279 280 279 277 276 282 278 274 275 275 273 275 278 275 278 277 275 276 276 277 276 277 277 278 275 274 272 273 275 277 280 278 278 278 275 276 278 276 276 276 277 274 272 273 272 268 267 264 263 260 264 264 264 264 267 268 269 271 273 275 275 274 273 271 272 273 274 274 270 268 270 276 277 278 277 278 277 276 276 276 277 277 277 277 277 277 278 278
Wind_Speed
18 18 18 17 16 16 15 15 15 15 15 14 14 14 14 14 14 14 14 15 15 15 16 16 18 17 10 5 5 2 6 3 15 20 27 13 19 23 24 25 26 25 22 6 16 16 7 9 13 12 8 8 7 6 5 7 6 5 6 5 6 0 4 0 2 2 1 2 7 11 7 6 10 12 7 4 2 4 3 7 12 6 1 2 4 8 12 10
18 18 18 17 16 16 16 15 15 15 14 14 14 14 14 14 14 14 14 14 14 15 15 16 18 18 11 3 4 2 2 6 12 26 19 18 25 24 25 24 25 25 18 11 12 7 7 9 7 9 8 6 5 3 4 3 5 7 3 6 4 1 2 1 0 4 2 4 6 5 6 3 4 5 6 7 11 11 15 14 11 14 18 19 18 17 17 14
18 18 17 16 16 16 16 16 15 15 15 14 14 14 14 14 15 14 15 15 15 15 16 16 17 19 13 3 6 8 3 3 21 23 14 26 25 24 24 23 24 24 7 2 4 2 4 1 4 5 6 6 9 4 5 7 4 4 7 7 4 0 3 2 1 5 1 4 6 6 6 4 5 4 5 6 8 7 12 13 19 17 18 19 17 16 14 16
18 17 17 16 16 16 16 15 15 15 14 14 13 13 14 14 14 15 15 16 16 16 16 17 16 14 17 5 4 2 4 5 16 7 11 25 25 23 22 21 22 16 9 2 3 4 1 3 7 7 4 12 5 5 11 8 5 3 7 4 3 3 3 5 6 6 5 1 3 3 5 3 7 4 6 12 10 12 11 10 11 15 16 16 14 13 13 13
18 17 17 17 16 16 16 16 15 15 14 13 13 13 13 13 14 14 15 16 16 17 18 18 16 8 16 12 4 4 4 9 5 8 13 25 24 22 21 19 20 10 6 3 1 7 6 8 3 7 7 3 6 4 5 7 3 4 3 1 0 4 1 6 7 7 4 3 1 2 6 4 5 3 13 14 11 9 13 18 17 13 12 12 12 12 11 14
18 18 17 17 17 16 16 16 15 14 13 13 13 13 13 13 13 13 14 14 15 17 17 19 15 8 8 18 9 4 4 5 4 9 17 24 23 21 19 17 19 10 10 17 9 6 17 12 9 7 6 6 7 9 5 3 1 7 2 2 1 0 2 5 7 7 5 3 5 4 5 3 7 3 8 12 12 11 14 14 13 10 9 10 9 10 14 16
18 18 18 17 16 16 16 16 15 14 14 13 13 12 12 13 12 13 14 14 14 15 17 17 15 5 5 7 5 22 16 4 2 10 18 23 21 18 18 12 17 13 17 20 17 9 7 11 12 4 4 4 5 4 2 4 6 10 4 1 5 1 7 5 5 6 5 8 8 2 1 14 9 7 7 18 15 15 16 16 9 11 12 11 13 13 13 14
18 18 18 17 17 16 16 16 15 14 14 14 13 13 13 13 14 14 14 15 16 16 17 16 15 8 4 2 3 14 13 5 11 9 17 21 16 15 14 7 14 9 15 12 12 11 3 12 7 0 9 7 1 4 3 5 10 6 5 3 3 2 5 6 4 8 5 7 1 12 20 13 9 2 12 18 17 19 18 13 12 12 13 14 15 15 14 14
18 18 18 18 17 17 16 16 15 14 14 14 14 14 13 13 13 13 13 13 15 16 17 17 15 9 5 3 0 18 9 5 7 10 12 14 13 10 10 9 11 11 5 9 8 7 5 7 6 2 2 5 2 4 6 2 5 3 1 0 2 5 5 8 10 11 5 1 7 20 14 16 15 3 13 16 18 17 14 11 13 12 18 16 14 14 15 15
18 18 18 18 18 17 17 16 15 15 14 14 14 14 13 13 12 12 11 12 12 14 14 15 16 16 9 3 6 17 3 6 7 8 11 11 11 11 14 8 9 8 10 9 9 11 11 1 1 2 9 6 1 6 2 9 0 2 1 2 4 4 8 11 8 10 6 3 6 12 15 14 12 11 8 17 17 17 14 11 13 14 16 15 13 13 14 16
17 18 18 18 18 17 17 16 15 15 15 14 14 14 13 12 11 11 10 9 10 11 11 12 9 10 12 3 19 10 2 7 4 7 11 9 9 10 8 9 7 6 7 8 10 4 3 3 1 1 4 0 2 4 7 1 1 2 0 1 7 5 10 17 16 16 8 2 7 2 9 16 14 12 13 14 15 14 12 12 13 14 14 13 14 13 13 14
16 17 17 17 17 17 17 16 16 15 15 15 14 15 15 12 10 9 10 8 11 11 9 7 8 1 2 16 16 4 5 4 5 6 7 11 8 5 5 4 4 4 5 7 8 5 3 2 3 2 2 0 2 1 3 1 2 2 2 1 5 9 13 15 11 13 5 4 11 2 9 19 17 14 14 12 11 13 10 12 13 14 13 13 12 12 13 13
15 16 16 17 17 17 17 16 16 16 15 15 14 14 15 14 10 9 9 8 12 11 7 8 5 5 1 20 2 4 2 4 4 9 14 12 7 1 0 4 5 3 4 3 4 7 3 4 6 12 0 4 1 3 0 5 2 1 9 2 7 10 9 16 10 17 7 8 14 1 5 8 11 12 12 11 12 11 12 14 12 11 11 11 12 11 12 14
14 14 15 16 16 16 16 16 16 16 15 15 14 13 13 15 13 11 10 7 12 8 6 10 6 7 10 4 2 4 4 1 6 16 13 11 12 7 5 8 4 5 3 4 1 4 7 4 7 6 3 6 2 3 3 4 5 3 3 5 4 5 4 10 8 14 9 6 17 4 6 5 10 11 12 10 9 11 11 11 12 11 11 11 11 11 12 13
14 14 14 15 15 15 16 16 16 16 16 15 14 13 12 15 13 10 11 8 12 8 2 4 6 2 7 1 4 8 3 1 13 8 6 10 9 7 10 11 7 7 3 4 1 3 4 5 6 7 4 1 3 2 3 4 5 4 3 6 4 7 6 6 10 14 10 6 12 7 6 4 8 11 13 10 8 9 10 11 11 11 11 11 11 11 12 12
14 14 14 14 14 15 15 16 16 15 15 15 14 12 10 11 14 8 10 6 8 11 1 4 8 7 9 5 1 5 4 11 13 8 4 4 4 4 7 8 4 6 10 5 2 2 6 3 13 4 5 8 10 4 5 6 6 6 6 2 4 4 5 3 8 9 12 2 17 11 6 3 5 11 12 11 9 8 8 10 10 10 10 11 12 11 11 12
15 15 15 14 14 14 15 15 15 14 14 13 11 8 7 9 15 7 6 7 5 4 8 5 3 1 7 4 2 8 6 5 5 6 10 3 4 4 6 7 4 9 7 4 10 7 8 6 2 4 5 6 3 1 6 7 5 6 4 3 0 3 5 3 6 7 9 9 9 10 10 9 7 9 11 12 12 7 10 11 12 10 10 10 10 11 12 12
15 15 15 15 15 15 15 14 14 13 12 12 7 5 4 8 9 11 6 5 2 5 3 3 2 2 3 8 5 8 5 5 9 8 5 4 3 6 8 5 4 3 4 3 4 9 4 4 4 7 3 5 8 7 9 4 0 3 4 4 3 2 2 1 4 5 6 8 10 5 11 10 9 10 11 12 12 9 11 11 11 12 12 11 10 11 12 12
16 15 15 15 14 15 15 15 14 13 12 9 5 2 4 4 3 6 11 6 10 9 10 11 11 8 1 8 7 6 6 4 4 6 13 11 5 2 2 1 4 7 2 6 3 5 6 3 2 5 16 14 12 8 5 3 3 3 3 0 1 3 4 4 3 1 2 7 8 8 7 7 10 11 10 11 12 11 10 10 10 11 11 11 11 11 11 11
16 16 16 15 14 14 15 16 13 13 11 5 6 3 6 5 7 5 7 14 10 6 4 1 1 2 3 5 7 7 5 5 5 12 14 6 4 8 8 4 3 7 6 4 6 6 3 14 11 4 5 8 8 4 3 2 2 0 1 1 1 0 1 2 2 3 3 3 6 6 6 6 7 9 9 10 10 12 13 12 11 11 11 11 11 12 11 12
17 17 17 16 14 12 14 16 11 13 10 7 5 9 2 3 4 3 3 5 3 2 3 1 1 1 0 2 4 7 5 4 2 11 8 6 3 3 8 7 8 12 8 2 2 5 3 16 9 4 4 5 6 4 1 3 2 1 1 2 3 3 2 0 1 3 1 3 2 1 4 6 5 7 7 8 10 13 13 12 10 11 11 10 11 12 12 10
17 17 18 18 16 11 10 15 14 5 11 9 12 9 2 2 0 1 2 4 2 1 1 1 1 1 2 4 3 2 4 1 10 14 9 10 8 6 5 8 7 12 10 5 4 7 13 12 5 4 4 2 2 4 2 2 4 4 3 1 1 3 1 3 2 1 1 3 2 1 7 4 5 5 6 8 8 7 9 10 9 9 10 9 10 10 10 10
17 17 17 18 16 10 5 7 14 13 6 8 6 5 3 2 0 1 2 6 2 1 2 2 4 2 3 3 1 3 4 11 3 9 10 7 5 7 1 7 8 6 8 8 8 3 10 8 5 3 2 1 3 5 5 4 4 5 5 4 1 2 1 2 1 2 3 2 3 0 5 3 3 3 6 6 5 4 7 8 9 8 8 9 10 9 9 10
16 16 17 17 16 9 3 5 3 11 8 7 7 2 1 1 3 2 2 2 2 1 1 0 1 0 3 4 3 4 4 1 2 12 7 4 3 2 4 3 4 5 7 7 9 12 6 2 3 2 3 3 3 4 8 5 2 2 3 1 1 2 2 1 1 1 1 2 0 2 3 0 4 4 2 2 4 5 4 7 7 7 6 6 6 8 9 10
15 16 16 17 16 9 5 5 7 2 2 4 3 1 1 2 5 4 2 1 4 2 4 0 3 2 3 1 3 0 0 1 1 3 2 3 4 3 1 2 3 4 3 2 4 9 5 1 1 4 5 5 4 8 5 2 1 2 1 0 4 3 4 5 2 2 3 1 3 3 2 2 2 2 2 2 1 3 2 5 7 7 8 7 8 8 9 8
15 16 16 17 16 6 3 3 2 0 3 3 1 0 2 2 3 2 7 4 2 4 2 6 1 4 2 4 6 1 1 3 1 2 1 4 3 2 0 3 1 3 4 3 2 2 0 2 6 3 2 5 6 3 1 1 1 2 3 1 4 3 1 0 1 3 3 2 3 2 1 3 1 2 3 2 3 0 2 3 2 5 5 7 6 7 8 8
14 14 15 14 17 5 3 0 0 0 2 1 1 2 0 2 2 1 1 5 5 2 3 3 2 2 3 2 4 0 4 4 4 2 4 4 3 2 4 3 2 1 2 2 4 2 4 6 7 4 8 8 6 7 1 2 1 1 1 3 1 2 3 3 2 2 1 1 3 3 1 1 2 2 2 1 2 1 0 1 1 1 4 5 5 6 6 7
14 13 13 11 13 12 4 3 2 3 0 1 1 2 1 1 2 1 5 3 1 3 2 4 1 3 5 7 10 7 1 6 3 2 6 7 1 3 6 0 3 3 1 3 5 5 2 6 6 7 6 5 3 2 6 1 1 1 2 1 1 3 2 4 3 2 0 1 5 5 3 0 2 2 1 1 3 3 3 2 2 1 1 2 3 5 5 5
14 13 13 10 4 11 6 4 3 2 1 2 2 3 1 2 3 6 4 2 1 1 3 0 2 2 8 4 6 3 2 4 3 4 9 4 5 1 4 2 1 1 2 4 5 1 1 2 1 1 3 5 5 5 3 4 2 1 3 2 2 3 5 3 3 2 2 3 4 4 2 1 4 2 3 0 1 4 4 2 2 2 0 0 1 2 3 3
14 14 14 11 3 5 4 3 4 1 2 3 3 1 2 1 2 1 2 1 1 1 1 3 4 6 4 4 2 7 8 4 1 5 4 4 11 7 3 0 0 3 4 7 4 4 1 3 4 3 0 1 4 5 1 1 3 1 1 1 3 6 4 2 4 2 3 2 3 1 2 2 2 2 5 2 3 4 3 2 2 2 2 2 1 0 1 1
14 13 13 9 5 0 1 3 3 1 1 2 2 3 1 6 3 5 1 2 1 2 1 4 1 4 7 8 6 5 1 2 7 6 6 5 9 3 5 1 4 4 3 5 1 5 2 1 0 1 2 3 1 2 0 0 0 1 1 2 2 3 8 2 5 4 2 3 4 2 1 1 0 3 4 5 3 4 5 4 4 4 3 2 1 1 1 1
12 11 9 7 0 1 3 0 1 1 3 2 2 3 3 2 6 2 1 4 0 2 2 3 2 1 5 1 3 6 5 6 2 5 7 5 6 12 9 4 5 4 4 6 8 3 0 0 2 6 2 6 3 2 2 3 5 7 2 6 4 5 6 2 8 3 1 1 0 1 3 1 5 6 5 7 8 6 5 6 6 4 4 3 2 2 1 1
10 8 5 3 2 2 1 0 1 2 2 3 3 4 2 4 1 2 2 3 1 1 0 1 2 3 3 1 4 4 2 3 5 3 1 2 7 4 2 6 1 1 1 2 3 9 2 2 5 3 1 1 3 5 7 5 7 8 4 1 2 2 4 1 4 3 5 5 4 2 2 2 3 6 6 7 9 9 6 6 5 5 5 4 4 3 2 2
7 6 4 3 1 0 0 1 1 1 1 2 1 3 5 4 1 3 0 1 1 3 3 2 4 2 7 3 3 3 4 0 5 5 6 3 6 5 6 5 6 5 4 3 6 2 6 4 4 6 3 5 4 3 0 1 3 1 2 1 2 4 1 2 2 1 3 6 7 4 2 4 0 3 1 8 4 4 4 4 4 4 4 4 2 1 3 4
3 5 2 3 2 3 1 1 2 2 2 2 8 5 2 1 1 2 1 1 2 2 0 1 1 1 1 2 3 1 1 2 3 3 8 5 4 1 5 7 6 3 1 2 0 0 2 6 6 1 2 2 3 1 1 2 1 1 1 1 3 0 4 1 3 2 2 5 7 1 3 3 3 1 3 1 1 2 2 4 2 4 4 3 3 4 4 4
3 3 1 2 2 3 2 1 2 2 1 3 3 6 2 3 0 2 0 2 1 0 1 1 5 2 1 2 1 2 4 0 4 4 2 3 1 1 0 1 4 3 3 3 1 2 3 1 1 6 1 1 1 1 1 1 1 1 1 1 1 2 4 3 1 1 2 1 5 1 8 5 8 5 2 1 0 4 2 4 4 5 5 3 5 5 5 5
2 3 1 2 2 2 1 2 2 3 4 4 4 1 2 1 6 3 2 2 0 2 1 0 2 2 2 2 2 4 1 1 1 2 2 1 1 1 1 1 3 1 1 2 1 1 0 10 4 2 0 1 0 1 0 0 0 1 1 1 1 2 3 2 2 2 4 1 4 2 2 8 5 3 2 1 3 6 6 6 7 6 4 5 8 7 7 7
1 1 0 0 2 2 0 1 2 5 5 5 4 2 0 2 1 2 1 2 0 2 2 2 0 2 2 1 3 3 6 0 3 6 0 0 1 2 2 0 1 2 0 0 2 1 1 5 2 0 1 6 3 1 2 0 0 1 1 1 1 1 2 4 1 3 4 3 6 6 4 7 6 5 1 5 8 10 9 7 5 7 7 9 9 9 7 6
3 1 0 1 1 0 0 3 6 3 2 7 1 3 2 1 1 2 2 1 1 2 1 1 0 0 3 1 3 1 4 2 2 0 1 0 2 3 2 2 1 3 1 4 1 1 1 0 7 0 0 4 3 2 2 3 3 2 0 2 0 2 2 2 0 1 4 3 6 7 4 5 7 5 8 7 11 11 8 6 10 11 11 10 9 9 8 8
2 1 1 1 4 0 0 2 5 8 6 2 3 0 0 1 1 4 3 1 0 0 1 2 0 1 0 3 1 2 2 1 0 1 0 1 0 0 2 2 2 0 3 1 2 0 2 1 2 3 2 1 1 2 1 1 1 5 4 3 2 2 1 2 1 1 1 2 1 1 9 6 6 6 6 8 8 10 10 11 11 11 10 10 9 9 9 8
1 2 1 1 2 1 3 10 13 8 6 1 1 2 2 2 1 1 2 2 1 2 1 2 5 0 2 1 1 0 0 0 1 1 1 1 2 1 2 3 2 0 1 1 1 0 1 0 4 6 7 1 3 1 0 1 2 1 3 1 2 1 1 2 6 2 2 1 2 1 9 8 10 3 7 7 7 6 7 9 9 10 11 10 10 9 9 7
1 1 2 2 3 1 1 7 4 1 5 4 1 0 2 3 4 1 1 1 1 1 2 4 1 3 1 1 1 1 1 1 0 1 2 2 1 1 0 3 4 1 2 1 1 3 2 2 1 6 6 6 1 0 2 0 1 1 2 2 2 2 4 3 1 2 1 0 3 2 0 12 6 3 4 5 3 4 4 5 8 8 9 9 10 9 8 8
3 0 1 3 2 1 8 6 1 5 4 1 4 2 2 1 3 1 0 1 0 0 1 1 2 1 2 1 1 1 1 1 4 1 1 1 2 4 2 6 5 3 1 1 1 1 3 2 1 6 5 4 1 1 0 2 1 1 0 2 1 1 2 4 3 3 2 1 0 1 2 11 6 1 3 4 4 4 4 4 8 7 6 7 7 7 8 7
1 1 1 0 1 2 3 0 1 2 0 2 1 0 2 1 1 2 0 1 0 1 0 0 1 1 1 1 2 2 1 1 1 0 1 0 1 2 4 4 3 0 1 1 1 3 1 2 3 4 6 5 3 1 0 1 1 1 2 3 2 4 5 2 4 1 1 7 7 7 6 6 2 1 2 2 2 3 4 4 5 8 8 7 7 7 7 7
1 1 1 5 6 4 1 1 6 5 1 1 0 4 0 1 1 1 1 0 0 0 0 1 0 1 2 1 2 1 3 1 2 1 0 1 3 1 2 4 3 0 2 3 2 1 1 2 1 1 2 5 7 8 8 5 2 2 1 2 2 5 7 2 1 1 3 2 4 3 8 10 5 2 3 3 2 5 5 4 4 6 8 7 6 7 7 6
1 1 4 4 7 7 6 2 5 7 6 2 2 0 1 1 1 2 2 0 1 1 1 1 1 3 3 1 2 4 2 4 0 2 3 2 3 1 2 2 4 1 2 3 3 2 0 1 2 4 6 8 9 5 1 2 3 4 3 4 4 3 3 2 4 4 8 4 7 12 9 16 19 10 8 9 5 6 8 6 6 6 7 9 8 8 7 6
1 3 1 2 4 7 3 2 2 2 2 4 0 2 0 1 1 1 1 0 0 0 0 0 2 1 1 1 1 1 0 4 4 0 4 4 3 2 1 3 1 3 5 3 2 4 2 1 6 6 9 11 5 7 4 2 8 12 12 11 6 6 8 9 8 10 6 6 9 8 11 10 20 12 4 6 7 5 6 7 7 7 8 9 8 6 7 7
1 1 1 1 1 1 1 3 3 4 2 2 0 0 1 1 0 1 1 0 1 0 1 1 1 3 5 5 5 0 1 2 1 3 2 3 2 3 0 0 2 3 3 1 1 2 2 2 2 2 6 8 11 11 9 9 9 10 12 12 11 8 10 14 17 11 7 8 15 3 3 5 17 14 15 13 7 8 9 10 8 8 7 6 5 7 8 9
2 1 1 1 1 1 0 0 2 5 6 3 2 2 1 2 3 4 2 0 1 0 2 3 4 8 7 3 3 1 4 1 3 3 4 1 3 1 1 1 1 2 2 1 1 1 1 4 2 1 8 8 10 12 8 9 6 7 13 15 14 11 16 17 17 12 15 17 16 17 15 19 22 21 20 19 8 6 10 8 6 7 10 8 6 8 9 9
1 2 1 3 4 3 1 1 1 3 3 1 1 3 4 7 4 1 1 3 1 2 0 2 6 2 7 6 4 3 8 7 2 2 2 3 1 2 3 4 2 1 1 2 0 0 2 4 4 0 3 8 4 4 4 4 4 12 16 16 16 16 16 17 13 13 12 16 21 22 19 20 23 20 12 15 12 7 7 10 12 11 8 7 7 8 10 11
1 0 3 6 2 0 1 1 2 2 1 0 1 2 2 5 6 7 3 5 4 5 6 7 4 3 1 6 5 11 7 7 5 2 8 7 4 5 3 2 5 4 3 1 1 2 1 3 3 3 4 6 2 5 9 8 9 13 19 23 19 12 11 12 13 14 13 16 13 7 9 15 21 12 4 8 6 5 9 10 9 8 7 6 8 10 11 11
2 0 1 1 2 1 1 1 1 2 1 6 5 5 3 7 4 5 1 2 3 3 10 8 5 6 1 3 12 14 11 6 8 4 7 7 0 0 3 2 7 7 5 6 2 3 4 2 1 2 4 7 3 5 11 11 11 13 14 12 10 7 11 1 4 7 17 16 7 6 12 14 11 3 6 9 6 6 7 8 9 9 8 8 10 11 11 11
Wind_Direction
20 20 18 17 18 18 19 16 13 11 10 9 10 11 12 10 10 8 7 6 4 360 354 348 358 355 345 302 273 156 63 53 25 36 40 7 353 347 349 347 350 354 347 343 13 31 5 13 13 344 34 51 323 23 323 28 355 48 43 98 46 318 52 152 60 11 299 301 320 337 336 351 341 341 325 349 2 331 327 21 347 354 25 57 359 348 342 313
19 18 18 19 18 17 16 14 12 11 9 9 9 9 9 9 7 4 3 2 1 358 355 352 352 8 359 329 185 197 108 30 27 35 27 347 351 350 351 350 353 358 354 22 22 9 41 1 352 9 44 42 324 24 7 12 25 60 90 66 99 43 256 99 129 331 20 299 301 296 311 21 299 340 321 2 348 3 7 349 1 349 342 344 352 353 353 350
18 18 17 18 18 17 14 13 12 11 10 9 8 7 8 6 5 2 0 2 360 359 358 357 352 4 13 15 116 133 102 325 32 18 343 345 348 349 348 352 353 358 13 7 353 67 56 26 302 56 14 80 16 339 30 352 44 20 105 77 26 292 283 256 325 313 299 273 304 323 316 353 279 350 309 4 302 11 23 354 345 349 328 332 338 348 358 6
18 17 17 17 17 16 13 12 12 10 9 8 6 7 6 5 3 3 1 0 1 359 358 0 359 360 23 49 114 75 71 17 50 336 326 341 344 344 346 350 356 353 354 9 341 31 125 67 41 68 66 57 325 8 38 335 61 343 63 77 355 323 9 359 343 315 311 254 280 293 284 359 335 347 27 356 19 0 351 350 333 317 316 317 335 353 1 6
17 16 16 14 10 11 11 10 9 9 9 6 6 6 4 4 2 2 2 1 360 358 358 358 3 1 20 38 78 68 81 56 343 334 321 335 342 341 342 350 356 357 340 284 225 29 56 48 59 44 65 51 13 18 28 346 69 78 97 24 262 329 59 329 329 319 322 296 244 302 29 334 310 48 29 32 40 342 330 317 314 309 311 322 353 6 356 14
16 16 16 14 11 10 9 8 7 7 7 7 4 4 6 2 2 1 3 4 3 358 354 359 3 20 24 38 53 78 102 71 312 316 321 335 337 341 341 350 356 7 3 39 39 11 35 4 56 31 26 51 11 64 307 344 322 89 7 2 327 301 51 330 334 341 13 3 26 15 344 292 10 81 31 36 22 324 319 306 306 313 350 20 33 15 19 19
14 15 16 16 13 10 8 7 6 7 7 6 6 5 3 2 358 359 360 1 3 4 356 356 13 9 18 56 52 67 73 132 302 295 327 335 336 340 341 352 359 14 27 32 18 41 10 41 59 44 90 74 43 66 354 23 27 85 74 355 18 349 26 324 344 351 14 38 34 305 289 34 357 65 10 25 350 346 341 342 354 32 43 32 34 26 27 24
13 13 14 15 15 12 8 7 7 7 7 6 4 4 1 359 358 357 357 1 1 1 2 357 8 10 357 37 16 55 51 350 315 313 329 332 338 340 338 5 11 6 37 39 20 23 336 44 50 216 55 77 312 66 333 59 38 52 52 337 328 15 356 2 0 28 24 51 332 47 41 9 10 123 34 11 353 349 348 354 30 34 35 34 33 25 19 23
13 13 12 12 9 8 7 8 8 6 5 4 359 358 357 354 353 353 356 357 4 2 1 359 5 28 93 90 142 62 12 303 298 309 329 334 330 329 18 8 348 23 29 35 25 24 58 2 36 49 125 65 349 67 357 101 9 51 184 335 319 30 352 15 18 21 13 65 25 56 37 27 3 320 44 6 355 347 340 1 21 29 38 33 26 24 26 24
14 12 11 9 8 7 7 8 6 4 2 360 356 353 352 350 348 349 353 1 1 7 7 1 8 3 37 49 80 66 282 309 311 330 330 333 325 8 14 6 1 14 25 11 27 32 45 350 108 323 116 81 83 45 282 46 94 75 280 101 51 332 17 12 28 12 355 109 41 67 48 32 17 46 353 0 353 343 349 6 20 31 36 32 26 21 28 27
14 14 10 9 9 8 8 6 4 2 358 357 356 354 350 348 347 350 354 2 9 4 11 15 358 19 45 26 71 89 278 18 328 334 335 337 7 22 353 346 351 21 20 13 41 42 35 27 308 117 47 135 61 13 54 260 204 1 292 253 21 328 37 13 8 4 4 348 36 129 55 39 19 48 16 347 349 347 354 8 23 30 31 30 25 28 25 29
15 13 11 11 10 10 7 6 3 360 358 355 355 356 354 348 348 356 356 8 13 2 14 28 21 94 95 58 57 63 261 302 322 334 325 3 353 305 301 339 6 36 41 23 9 24 23 359 94 72 113 156 54 360 27 16 89 16 93 358 330 9 37 13 6 341 340 343 349 207 36 26 20 22 1 352 351 353 4 19 23 26 26 24 23 29 37 30
17 15 14 13 12 11 9 5 2 360 356 354 350 353 359 359 356 5 2 17 7 6 21 25 29 52 184 57 347 207 283 297 342 333 5 3 325 260 217 27 25 46 42 71 6 346 27 30 59 65 327 95 105 70 246 59 349 63 40 62 7 5 27 356 351 358 7 5 343 320 41 19 21 17 2 358 359 355 18 24 21 23 22 21 24 29 32 32
18 18 18 16 15 13 10 7 2 359 354 349 346 343 352 8 8 7 10 11 7 20 51 33 58 43 55 107 242 257 268 70 342 16 357 336 18 333 358 3 19 20 354 68 48 350 18 41 92 102 115 54 49 332 34 346 19 59 299 44 32 12 359 336 4 354 29 336 351 60 110 41 21 18 8 3 7 5 21 21 22 22 21 22 26 27 32 31
16 17 18 19 18 15 12 8 3 357 352 348 344 345 346 1 6 14 16 13 3 18 80 41 38 74 41 30 264 297 322 53 18 2 342 4 7 342 351 335 349 6 331 48 21 358 26 15 64 39 41 307 37 46 8 39 14 18 50 357 340 54 322 318 8 17 19 316 351 88 65 73 34 19 12 4 7 13 25 23 23 22 22 21 25 25 27 31
12 13 16 18 19 17 13 9 3 356 351 345 340 338 342 354 5 26 31 21 0 10 11 49 358 83 112 48 321 20 40 20 348 322 338 39 21 6 297 287 296 354 20 3 41 43 31 55 56 25 17 11 35 62 57 36 4 8 71 51 358 10 340 342 16 11 14 328 15 51 98 27 26 18 17 8 7 12 27 27 24 22 21 23 23 22 24 23
9 9 11 13 14 15 14 8 3 354 347 339 331 332 341 3 7 11 38 42 1 3 54 19 353 85 70 255 344 25 357 326 307 338 347 36 40 338 347 13 7 337 346 350 26 31 354 56 346 26 40 67 331 101 69 46 11 10 16 79 322 38 327 18 309 18 9 37 53 35 69 45 19 12 18 15 8 5 30 28 24 24 25 23 23 26 25 27
7 6 6 6 10 11 12 8 1 356 340 331 331 298 323 355 7 30 358 17 7 71 79 126 128 34 14 26 18 320 307 298 340 315 286 321 67 4 44 19 333 355 32 359 353 34 336 52 33 117 115 69 27 20 76 44 351 350 356 29 347 321 84 1 15 324 23 33 62 52 66 44 26 23 21 13 8 16 35 32 25 22 23 22 22 26 26 28
5 5 2 2 3 8 9 7 3 353 339 316 346 44 28 32 31 52 33 335 43 352 26 346 10 63 167 306 273 277 309 285 283 15 341 353 339 59 44 92 43 32 334 47 338 41 354 91 88 48 18 4 10 21 68 165 153 205 184 125 250 16 356 331 317 291 67 45 48 45 60 38 30 28 22 14 9 23 29 35 34 25 22 22 23 23 26 26
2 1 1 358 359 3 8 10 6 3 355 18 9 32 14 21 3 351 338 42 65 101 150 246 161 234 328 341 331 288 255 25 35 349 359 6 349 350 33 36 345 59 47 52 312 32 308 61 38 30 269 322 318 350 273 264 183 126 100 99 253 258 346 325 321 316 253 66 50 56 67 54 42 31 22 20 11 20 19 24 30 27 22 22 20 22 22 24
1 358 356 355 354 1 12 16 16 24 40 82 63 62 109 164 82 45 2 69 172 135 87 192 150 151 208 260 286 355 16 331 97 7 3 284 115 49 348 15 2 41 10 300 87 316 48 62 23 344 293 285 290 305 260 83 67 126 117 83 14 17 49 340 304 335 360 109 39 8 65 51 51 47 36 25 24 24 13 10 18 24 22 24 19 20 22 15
1 359 356 352 349 355 18 28 24 13 42 63 67 80 110 195 207 93 118 59 15 11 72 317 213 352 322 205 250 161 124 270 357 1 345 30 347 75 319 63 27 46 341 4 13 16 45 50 351 314 316 304 284 348 49 110 75 41 70 312 61 32 16 312 260 340 314 55 49 14 63 44 37 51 52 47 35 20 12 11 9 17 25 24 22 20 17 12
2 359 356 354 346 339 7 25 32 40 30 30 65 76 149 239 8 49 82 115 93 317 44 16 24 358 345 327 321 108 45 40 292 349 347 5 5 69 349 38 20 32 13 4 60 358 48 12 332 301 360 63 6 31 48 46 59 57 25 52 251 280 307 211 237 17 19 103 198 100 86 56 7 37 70 76 64 17 3 1 9 13 26 28 27 20 15 17
3 0 356 354 349 334 24 30 3 33 43 85 86 111 207 98 105 117 69 84 125 327 111 237 113 145 22 15 345 51 70 298 70 336 344 38 51 254 73 63 52 48 13 11 55 72 111 311 320 26 16 72 66 23 45 30 23 342 83 120 292 313 289 312 281 350 33 358 313 245 268 254 341 5 9 58 103 69 7 352 11 7 15 24 26 28 24 23
3 1 360 355 355 335 277 2 37 46 196 40 60 234 250 163 157 181 94 17 18 16 181 78 124 43 330 256 358 86 291 37 83 237 301 60 343 43 32 158 95 14 6 303 42 69 36 344 259 8 13 25 51 39 34 60 8 323 253 199 237 256 287 324 19 42 335 303 23 352 268 295 294 320 1 339 339 86 73 20 359 354 12 14 22 26 21 22
3 4 3 2 2 1 309 31 338 143 61 67 195 172 190 168 186 158 89 78 26 295 10 13 165 352 164 341 10 351 360 51 286 356 332 348 242 98 51 19 72 15 325 53 83 131 137 321 65 16 12 11 36 85 264 100 158 63 302 211 237 221 197 275 53 355 329 50 319 39 174 272 273 312 342 316 331 119 76 57 308 352 11 7 14 25 22 18
3 4 8 10 9 11 55 326 246 91 35 352 281 284 360 166 212 87 30 356 34 308 8 268 52 346 55 322 329 70 42 301 334 353 9 353 27 312 91 320 17 86 134 154 41 355 8 344 7 26 29 28 23 13 309 117 90 353 316 331 116 111 132 137 125 133 225 257 285 39 78 192 312 286 249 278 315 282 90 240 282 51 7 9 3 20 31 23
360 2 9 10 30 41 139 123 35 43 126 308 314 4 43 194 106 90 77 58 330 347 2 320 56 325 67 315 10 71 172 287 18 318 42 309 30 351 83 257 102 2 309 92 86 262 89 329 17 359 21 28 3 252 298 131 164 237 321 69 84 165 142 125 99 101 67 35 308 337 353 26 281 262 242 100 349 310 283 283 305 309 113 358 342 3 27 22
357 358 1 358 18 74 81 94 104 58 288 303 18 353 25 59 93 97 116 107 252 75 185 90 208 27 339 356 32 40 333 360 76 305 334 358 52 180 42 336 145 115 344 90 145 276 289 167 248 158 80 342 268 283 269 159 327 266 245 72 84 60 60 43 68 63 333 67 309 314 336 107 290 276 336 294 239 267 253 234 242 265 225 214 322 350 353 2
355 358 0 357 39 23 5 45 50 250 334 11 13 20 41 50 33 36 16 346 23 287 39 274 58 300 7 30 329 6 23 343 122 304 3 72 314 24 72 181 115 37 18 358 72 215 278 307 172 108 128 249 275 281 204 246 246 287 88 47 360 33 15 26 58 57 44 25 261 243 303 116 298 259 217 208 230 200 246 295 258 249 223 223 227 231 301 336
355 360 6 16 63 231 85 26 304 344 50 39 1 32 40 34 110 96 102 228 58 267 19 28 352 18 26 43 344 345 22 345 347 21 346 358 4 45 11 25 23 62 32 8 350 338 350 1 64 250 48 305 178 308 325 250 270 102 33 85 359 286 5 27 345 32 79 293 258 262 292 230 175 291 262 225 244 196 192 224 229 235 237 241 242 248 241 278
353 360 26 45 130 84 70 207 278 92 68 75 57 58 65 264 9 91 195 334 225 295 76 298 360 60 31 6 76 339 336 326 7 32 19 6 25 33 6 69 344 38 350 3 319 4 322 207 283 319 223 24 334 56 308 333 17 38 43 30 51 294 20 327 6 2 28 195 193 44 11 36 241 219 209 220 224 231 210 205 211 211 220 228 243 237 247 258
353 360 50 56 41 36 29 196 81 120 99 53 69 53 58 92 45 270 295 331 266 22 296 168 291 2 309 50 358 344 237 41 317 38 355 343 81 49 40 61 329 123 318 334 308 9 288 281 354 353 16 341 27 67 334 7 4 18 65 107 71 7 36 296 275 223 300 290 290 13 339 242 259 283 207 201 220 212 204 209 204 192 202 210 221 236 244 258
8 34 33 323 82 64 92 90 125 99 59 41 74 33 47 57 253 142 306 246 320 351 30 13 337 2 42 77 320 351 24 240 27 337 43 351 50 19 339 15 34 5 74 357 55 357 27 342 338 12 3 341 45 62 225 199 334 327 170 118 194 139 155 295 227 307 254 248 288 299 36 243 69 243 211 217 220 214 214 196 203 214 216 216 228 262 278 270
38 67 34 338 26 26 56 77 83 95 81 67 52 83 102 257 218 199 263 291 284 311 33 324 354 46 339 20 322 320 109 301 29 24 22 48 10 25 0 339 350 100 199 53 258 73 231 237 265 308 236 13 17 324 92 102 29 299 176 129 58 333 146 175 209 173 280 339 330 322 201 202 194 241 290 265 287 261 232 218 189 238 250 268 269 251 243 246
56 306 48 9 7 328 26 58 76 57 85 55 74 42 75 185 21 151 81 174 51 100 279 10 66 53 306 312 314 58 308 171 314 70 359 61 205 92 254 216 355 17 17 90 295 341 15 299 278 323 54 132 43 336 311 143 31 293 60 42 180 182 106 85 69 124 180 69 255 204 305 285 295 298 249 185 187 238 230 227 213 227 234 240 246 243 244 239
20 336 52 331 359 333 331 32 66 71 56 92 90 100 197 276 205 166 13 157 207 141 49 48 309 77 324 300 269 330 276 48 336 80 344 198 39 194 353 302 206 32 131 131 14 144 154 271 312 57 257 18 181 233 308 258 225 59 30 229 113 121 110 127 264 327 63 110 264 44 255 304 25 285 352 201 232 240 229 224 221 229 227 231 236 237 235 233
42 54 154 16 278 310 37 22 67 40 77 79 68 140 318 94 220 172 227 105 147 48 96 94 262 63 263 137 322 338 311 104 323 49 270 342 127 159 127 163 131 125 234 274 131 280 84 335 300 92 229 277 345 123 318 225 45 116 160 195 61 330 358 334 78 7 346 347 297 307 272 251 188 249 343 238 220 233 229 223 230 235 229 228 233 240 246 251
57 74 28 292 312 280 6 71 67 70 56 57 219 103 234 247 284 179 237 150 112 144 87 216 143 236 135 194 250 289 329 28 334 94 54 258 71 193 156 175 171 171 61 143 80 178 3 173 297 323 290 313 336 59 251 302 339 30 15 20 359 104 145 19 50 206 119 274 26 294 29 278 198 226 194 226 214 224 216 205 223 224 222 222 226 230 232 231
21 28 310 347 309 110 176 69 70 46 61 111 195 161 192 163 269 284 292 210 37 77 213 134 205 119 231 223 100 299 332 66 20 292 140 317 91 216 163 240 180 219 138 128 134 236 176 125 252 277 312 312 303 14 158 130 302 338 23 342 4 51 213 110 33 86 230 187 182 277 328 279 262 207 177 218 214 216 202 210 217 224 224 223 223 224 225 223
56 101 270 323 321 289 19 47 47 36 84 267 77 145 6 202 293 299 274 255 109 344 174 169 161 162 200 101 295 159 303 5 329 261 219 290 170 329 227 166 188 132 149 56 76 159 87 94 224 321 346 350 240 266 186 178 171 176 169 218 176 47 9 40 290 22 57 57 247 92 276 274 274 174 203 208 225 211 214 206 219 224 225 220 223 227 222 226
86 37 280 331 300 59 77 50 30 178 100 87 55 100 10 118 48 327 6 347 75 139 18 112 41 120 136 109 180 151 133 304 216 5 255 206 264 182 281 96 135 182 115 185 185 219 143 161 90 287 230 248 226 119 353 137 129 198 165 262 120 106 104 99 285 283 31 214 107 158 296 274 246 206 217 235 231 234 230 207 232 233 229 229 227 225 227 223
54 180 272 345 317 78 59 74 143 57 58 231 288 263 307 20 122 295 98 339 340 256 32 47 196 103 276 145 215 103 190 261 172 218 197 240 264 216 198 143 125 69 87 343 45 285 109 79 349 258 293 317 350 30 220 61 151 333 350 86 111 183 180 184 179 168 152 37 160 341 243 254 285 196 233 245 248 252 250 214 231 250 255 252 242 238 233 234
166 227 330 274 64 109 78 339 31 17 239 304 75 152 267 186 128 28 350 307 99 341 131 154 11 360 151 53 109 148 199 342 209 22 325 99 284 96 120 157 183 147 130 244 140 244 25 287 123 332 349 335 344 353 3 332 56 194 222 218 175 89 74 129 109 68 309 213 175 132 243 274 278 8 304 280 295 284 266 246 215 245 257 249 251 250 242 240
109 307 245 303 4 54 114 178 132 135 56 111 68 87 45 26 24 175 165 221 59 147 91 322 275 156 50 87 78 82 349 117 296 6 64 231 252 29 27 140 209 165 272 254 330 92 213 219 105 38 347 328 319 315 303 312 248 242 217 240 225 147 132 125 246 30 201 272 137 188 255 251 264 313 324 316 350 308 280 250 234 228 250 260 255 252 253 244
39 115 308 346 14 42 67 77 104 129 133 175 73 251 109 58 19 328 127 352 165 87 60 142 351 84 99 69 49 5 312 329 149 278 4 303 275 335 187 187 207 192 231 91 96 63 163 330 250 176 168 217 236 247 230 44 344 273 243 169 229 197 182 110 95 119 215 198 192 237 226 289 287 266 281 278 281 270 278 289 272 254 248 251 253 254 250 247
164 81 337 333 344 52 88 42 73 77 138 195 48 165 239 164 259 350 136 45 20 135 26 130 192 148 254 122 214 50 205 311 340 243 241 216 249 238 280 163 218 238 186 111 74 85 66 313 245 227 248 250 279 284 278 318 267 271 275 264 202 189 173 172 174 223 148 90 273 237 230 230 264 290 243 268 275 273 269 262 269 270 259 247 246 252 258 257
72 246 103 204 137 308 38 350 89 94 60 78 112 70 148 123 51 169 346 57 341 308 116 310 111 239 174 181 144 187 51 248 33 236 301 231 327 318 324 136 184 272 211 124 39 147 149 218 285 144 260 260 271 275 284 280 248 258 260 264 253 210 186 202 223 213 147 199 243 236 144 233 272 279 284 275 266 272 275 272 254 250 261 257 254 253 253 253
106 155 141 315 154 246 109 172 102 115 83 106 120 108 147 185 224 210 166 123 27 315 174 259 253 217 199 162 142 204 160 351 300 240 215 247 215 339 322 346 194 2 113 72 34 168 104 243 234 184 283 275 264 261 270 260 280 274 256 255 249 228 225 217 230 214 206 236 246 270 278 276 276 278 279 285 290 254 273 276 281 272 257 257 252 255 256 256
231 136 264 10 85 126 214 111 148 80 83 342 100 245 165 185 209 211 298 147 178 265 114 207 248 185 187 183 174 191 210 192 178 282 229 157 302 176 240 195 150 9 95 183 169 281 132 280 93 216 327 289 310 332 301 276 271 278 275 257 240 234 237 228 229 233 230 256 258 257 266 274 273 266 280 283 284 271 276 274 265 267 269 259 253 254 254 254
170 92 143 119 71 327 76 30 110 118 101 288 154 241 147 206 225 187 210 192 171 174 180 205 197 125 154 188 214 241 230 195 180 209 178 169 250 209 149 276 133 151 160 157 174 304 111 253 56 66 341 291 330 353 310 301 284 268 273 273 260 218 230 232 204 216 195 227 241 248 262 257 260 284 254 253 268 257 250 260 266 265 265 265 257 256 258 258
61 9 87 101 91 256 164 45 39 82 274 222 172 204 180 223 201 154 243 205 203 177 183 183 166 117 124 173 228 228 238 199 218 202 181 211 205 180 221 183 159 157 184 188 148 168 171 145 61 35 320 259 280 318 317 315 306 292 269 244 243 200 206 212 209 185 206 208 214 201 234 236 258 298 299 288 263 253 250 256 269 271 259 252 252 251 253 259